Home   Weather   Kaliningrad   Past weeks

Flag for Russia Past Weather in Kaliningrad, Russia — Yesterday and Last 2 Weeks

Now
61 °F

Passing clouds.


Feels Like: 61 °F
Forecast: 58 / 66 °F
Wind: 10 mph from West

Location: Kaliningrad/Khrabrovo Airport

Current Time: Sep 29, 2016 at 1:56:28 AM

Latest Report: Sep 29, 2016 at 1:00 AM


Visibility: 5 mi

Pressure: 29.89 "Hg

Humidity: 88%

Dew Point: 57 °F

Location of KaliningradLocation

Past Weather in Kaliningrad — Graph

°F

Kaliningrad Temperature Yesterday

Maximum temperature yesterday: 61 °F (at 9:00 PM)
Minimum temperature yesterday: 45 °F (at 12:00 AM)
Average temperature yesterday: 53 °F

High & Low Weather Summary for the Past Weeks

 TemperatureHumidityPressure
High70 °F (Sep 15, 2:00 PM)100% (Sep 14, 12:00 AM)30.39 "Hg (Sep 14, 12:00 AM)
Low36 °F (Sep 27, 7:00 AM)38% (Sep 15, 2:30 PM)29.86 "Hg (Sep 28, 8:00 PM)
Average54 °F80%30.14 "Hg
* Reported Sep 14 12:00 AM — Sep 29 12:00 AM, Kaliningrad, Weather by CustomWeather, © 2016

Note: Actual official high and low records may vary slightly from our data, if they occured in-between our weather recording intervals... More about our weather records

Advertising

Kaliningrad Weather History for the Previous 24 Hours

Scroll right to see more
 ConditionsComfort  
Time TempWeatherWind HumidityBarometerVisibility
12:00 AM
Thu, Sep 29
59 °FPassing clouds.10 mph94%29.86 "Hg5 mi
11:00 PM
Wed, Sep 28
61 °FPassing clouds.13 mph88%29.86 "Hg5 mi
10:30 PM61 °FPassing clouds.13 mph88%29.89 "Hg5 mi
10:00 PM59 °FPassing clouds.13 mph94%29.86 "Hg5 mi
9:30 PM61 °FPassing clouds.15 mph88%29.86 "Hg5 mi
9:00 PM61 °FPassing clouds.15 mph88%29.86 "Hg5 mi
8:30 PM59 °FFog.13 mph94%29.86 "Hg3 mi
8:00 PM59 °FSprinkles. Fog.13 mph94%29.86 "Hg3 mi
7:00 PM57 °FScattered clouds.15 mph100%29.89 "Hg6 mi
6:30 PM57 °FScattered clouds.13 mph100%29.89 "Hg5 mi
6:00 PM57 °FScattered clouds.13 mph100%29.89 "Hg5 mi
5:30 PM57 °FScattered clouds.13 mph100%29.89 "Hg4 mi
5:00 PM57 °FScattered clouds.15 mph100%29.92 "Hg4 mi
4:30 PM57 °FSprinkles. Partly sunny.17 mph94%29.92 "Hg4 mi
4:00 PM57 °FPartly sunny.17 mph94%29.92 "Hg4 mi
3:30 PM55 °FPartly sunny.13 mph100%29.92 "Hg4 mi
3:00 PM55 °FSprinkles. Broken clouds.15 mph100%29.92 "Hg3 mi
2:30 PM55 °FSprinkles. Partly sunny.10 mph100%29.95 "Hg2 mi
2:00 PM55 °FSprinkles. Partly sunny.10 mph94%29.98 "Hg3 mi
1:30 PM55 °FSprinkles. Partly sunny.10 mph82%29.98 "Hg4 mi
1:00 PM57 °FScattered clouds.10 mph72%29.98 "HgN/A
12:30 PM57 °FScattered clouds.10 mph72%30.01 "HgN/A
12:00 PM55 °FScattered clouds.10 mph72%30.01 "HgN/A
11:30 AM54 °FPartly sunny.13 mph77%30.04 "HgN/A
11:00 AM54 °FSunny.10 mph77%30.04 "Hg10 mi
10:30 AM54 °FSunny.13 mph72%30.07 "Hg10 mi
10:00 AM52 °FPassing clouds.10 mph77%30.07 "HgN/A
9:30 AM50 °FPassing clouds.10 mph76%30.09 "HgN/A
9:00 AM48 °FSunny.8 mph82%30.09 "Hg10 mi
8:30 AM48 °FPassing clouds.8 mph82%30.09 "HgN/A
8:00 AM46 °FPassing clouds.10 mph93%30.12 "HgN/A
7:30 AM46 °FPassing clouds.8 mph87%30.15 "HgN/A
7:00 AM45 °FPassing clouds.6 mph93%30.15 "HgN/A
6:30 AM45 °FPassing clouds.6 mph93%30.18 "HgN/A
6:00 AM45 °FClear.6 mph93%30.18 "Hg10 mi
5:30 AM45 °FClear.6 mph93%30.18 "Hg10 mi
5:00 AM45 °FClear.6 mph93%30.21 "Hg10 mi
4:30 AM45 °FClear.6 mph93%30.24 "Hg10 mi
4:00 AM45 °FClear.6 mph93%30.24 "Hg10 mi
3:00 AM45 °FClear.6 mph93%30.27 "Hg10 mi
2:00 AM46 °FClear.8 mph87%30.27 "Hg10 mi
1:00 AM45 °FClear.6 mph100%30.30 "Hg10 mi
Weather by CustomWeather, © 2016

See weather overviewHow to use our weather pages